JR4VEV-13 Weather Reports


Display with metric or nautical units.
time (UTC)temp
F
wind
direction
speed
MPH
gust
MPH
rain 1hr
in
rain 24hr
in
rain mn
in
humidity
%
barometer
mb
20260509091126 71 259 0.0 1.0 0.00 0.00 0.00 43 1016.9
20260509090126 73 267 1.0 1.0 0.00 0.00 0.00 38 1016.7
20260509085126 74 51 0.0 1.0 0.00 0.00 0.00 34 1016.7
20260509084125 72 214 2.0 4.0 0.00 0.00 0.00 34 1016.7
20260509083125 73 278 0.0 3.0 0.00 0.00 0.00 33 1016.4
20260509082125 73 265 1.0 5.0 0.00 0.00 0.00 32 1016.6
20260509081125 74 300 2.0 6.0 0.00 0.00 0.00 33 1016.4
20260509080125 74 245 1.0 4.0 0.00 0.00 0.00 32 1016.4
20260509075124 74 217 1.0 2.0 0.00 0.00 0.00 32 1016.3
20260509074126 74 254 0.0 4.0 0.00 0.00 0.00 33 1016.3
20260509073125 74 263 2.0 3.0 0.00 0.00 0.00 32 1016.3
20260509072125 74 115 2.0 5.0 0.00 0.00 0.00 32 1016.1
20260509071125 74 262 3.0 6.0 0.00 0.00 0.00 33 1016.2
20260509070125 74 259 0.0 5.0 0.00 0.00 0.00 34 1016.1
20260509065125 74 323 2.0 4.0 0.00 0.00 0.00 35 1016.2
20260509064126 74 282 3.0 8.0 0.00 0.00 0.00 34 1016.3
20260509062126 75 166 1.0 4.0 0.00 0.00 0.00 34 1016.3
20260509061125 75 206 1.0 7.0 0.00 0.00 0.00 33 1016.3
20260509060125 75 263 1.0 4.0 0.00 0.00 0.00 34 1016.3
20260509055126 74 108 0.0 6.0 0.00 0.00 0.00 34 1016.1
20260509054125 75 129 5.0 7.0 0.00 0.00 0.00 33 1016.3
20260509053124 76 298 1.0 3.0 0.00 0.00 0.00 33 1016.0
20260509052124 77 217 3.0 3.0 0.00 0.00 0.00 33 1016.0
20260509051126 76 181 0.0 5.0 0.00 0.00 0.00 33 1016.0
20260509050126 77 205 3.0 6.0 0.00 0.00 0.00 32 1016.1
20260509045125 77 288 4.0 10.0 0.00 0.00 0.00 23 1016.3
20260509044125 77 268 0.0 11.0 0.00 0.00 0.00 24 1016.4
20260509043126 77 249 2.0 10.0 0.00 0.00 0.00 24 1016.6
20260509042125 77 318 5.0 8.0 0.00 0.00 0.00 24 1016.6
20260509041125 76 321 4.0 8.0 0.00 0.00 0.00 24 1016.8
20260509040125 76 267 0.0 9.0 0.00 0.00 0.00 22 1017.0
20260509035126 76 264 3.0 10.0 0.00 0.00 0.00 24 1017.0
20260509034126 75 267 3.0 4.0 0.00 0.00 0.00 24 1017.0
20260509033125 75 69 1.0 4.0 0.00 0.00 0.00 26 1017.1
20260509032125 75 282 2.0 8.0 0.00 0.00 0.00 26 1017.3
20260509031124 75 286 4.0 10.0 0.00 0.00 0.00 26 1017.3
20260509030126 75 283 8.0 10.0 0.00 0.00 0.00 27 1017.4
20260509025125 74 288 6.0 10.0 0.00 0.00 0.00 27 1017.5
20260509024125 74 308 3.0 7.0 0.00 0.00 0.00 28 1017.6
20260509023124 73 34 0.0 7.0 0.00 0.00 0.00 30 1017.7
20260509022126 73 13 3.0 6.0 0.00 0.00 0.00 30 1017.9
20260509021125 72 218 4.0 3.0 0.00 0.00 0.00 31 1017.9
20260509020125 72 274 2.0 5.0 0.00 0.00 0.00 32 1018.2
20260509015124 72 200 1.0 3.0 0.00 0.00 0.00 32 1018.3
20260509014124 71 258 0.0 4.0 0.00 0.00 0.00 34 1018.5
20260509013126 70 136 3.0 8.0 0.00 0.00 0.00 33 1018.5
20260509012124 71 269 2.0 7.0 0.00 0.00 0.00 36 1018.5
20260509011126 70 271 0.0 5.0 0.00 0.00 0.00 35 1018.5
20260509010125 69 311 2.0 4.0 0.00 0.00 0.00 36 1018.7
20260509005126 69 288 2.0 7.0 0.00 0.00 0.00 39 1018.8
20260509004125 68 280 1.0 4.0 0.00 0.00 0.00 39 1018.7
20260509003125 68 235 2.0 4.0 0.00 0.00 0.00 42 1018.8
20260509002124 67 150 1.0 1.0 0.00 0.00 0.00 43 1018.8
20260509001125 66 272 0.0 2.0 0.00 0.00 0.00 47 1018.7
20260509000125 65 172 1.0 1.0 0.00 0.00 0.00 51 1018.8
20260508235125 65 294 0.0 0.0 0.00 0.00 0.00 52 1019.0
20260508234124 63 89 0.0 1.0 0.00 0.00 0.00 61 1019.1
20260508233125 60 89 1.0 1.0 0.00 0.00 0.00 65 1019.1
20260508232125 58 297 0.0 2.0 0.00 0.00 0.00 69 1019.1
20260508231126 57 302 0.0 2.0 0.00 0.00 0.00 72 1019.1
20260508230124 56 283 1.0 1.0 0.00 0.00 0.00 74 1019.3
20260508225125 55 296 0.0 1.0 0.00 0.00 0.00 78 1019.3
20260508224125 53 295 0.0 2.0 0.00 0.00 0.00 79 1019.1
20260508223125 53 294 0.0 0.0 0.00 0.00 0.00 81 1019.2
20260508222125 51 255 0.0 0.0 0.00 0.00 0.00 83 1019.3
20260508221124 51 255 0.0 0.0 0.00 0.00 0.00 85 1019.2
20260508220125 49 255 0.0 0.0 0.00 0.00 0.00 89 1019.2
20260508215125 48 255 0.0 1.0 0.00 0.00 0.00 91 1019.1
20260508214125 47 255 0.0 1.0 0.00 0.00 0.00 92 1019.1
20260508213125 46 255 0.0 0.0 0.00 0.00 0.00 94 1019.1
20260508212125 45 255 0.0 0.0 0.00 0.00 0.00 94 1019.0
20260508211125 45 255 0.0 1.0 0.00 0.00 0.00 94 1018.8
20260508210125 45 255 1.0 1.0 0.00 0.00 0.00 94 1018.7
20260508205124 45 109 0.0 1.0 0.00 0.00 0.00 94 1018.6
20260508204124 44 109 0.0 0.0 0.00 0.00 0.00 93 1018.4
20260508203125 44 109 0.0 0.0 0.00 0.00 0.00 93 1018.5
20260508202125 45 109 0.0 1.0 0.00 0.00 0.00 93 1018.4
20260508201125 44 109 0.0 0.0 0.00 0.00 0.00 93 1018.3
20260508200124 45 109 0.0 0.0 0.00 0.00 0.00 92 1018.3
20260508195124 45 109 0.0 1.0 0.00 0.00 0.00 92 1018.0
20260508194123 45 109 0.0 1.0 0.00 0.00 0.00 92 1017.9
20260508193125 45 109 0.0 0.0 0.00 0.00 0.00 92 1017.6
20260508192124 45 109 0.0 2.0 0.00 0.00 0.00 92 1017.5
20260508191124 45 109 0.0 1.0 0.00 0.00 0.00 92 1017.2
20260508190125 45 109 0.0 0.0 0.00 0.00 0.00 92 1017.1
20260508185124 45 266 0.0 0.0 0.00 0.00 0.00 92 1016.9
20260508184125 45 266 0.0 1.0 0.00 0.00 0.00 92 1016.9
20260508183125 45 266 0.0 1.0 0.00 0.00 0.00 91 1016.8
20260508182124 46 266 0.0 0.0 0.00 0.00 0.00 90 1017.0
20260508181124 46 266 0.0 0.0 0.00 0.00 0.00 90 1016.8
20260508180123 46 266 0.0 0.0 0.00 0.00 0.00 90 1016.6
20260508175125 46 266 0.0 0.0 0.00 0.00 0.00 89 1016.4
20260508174125 47 266 0.0 1.0 0.00 0.00 0.00 89 1016.3
20260508173123 47 266 0.0 0.0 0.00 0.00 0.00 89 1016.4
20260508172125 47 266 0.0 0.0 0.00 0.00 0.00 88 1016.4
20260508171124 47 266 0.0 2.0 0.00 0.00 0.00 88 1016.3
20260508170124 47 262 0.0 1.0 0.00 0.00 0.00 88 1016.3
20260508165124 48 278 0.0 0.0 0.00 0.00 0.00 86 1016.3
20260508164123 48 278 0.0 2.0 0.00 0.00 0.00 86 1016.2
20260508163125 48 285 0.0 1.0 0.00 0.00 0.00 86 1016.2
20260508162123 48 285 0.0 1.0 0.00 0.00 0.00 86 1016.2
20260508161123 48 285 0.0 0.0 0.00 0.00 0.00 86 1016.2
20260508160125 49 285 0.0 0.0 0.00 0.00 0.00 84 1016.0
20260508155124 49 292 0.0 2.0 0.00 0.00 0.00 85 1016.2
20260508154123 49 283 0.0 1.0 0.00 0.00 0.00 85 1016.1
20260508153125 49 291 0.0 1.0 0.00 0.00 0.00 84 1016.2
20260508152124 49 249 0.0 0.0 0.00 0.00 0.00 84 1016.1
20260508151125 49 261 0.0 1.0 0.00 0.00 0.00 84 1016.0
20260508150124 50 272 0.0 0.0 0.00 0.00 0.00 84 1015.8
20260508145125 50 272 0.0 0.0 0.00 0.00 0.00 82 1015.7
20260508144123 50 272 0.0 2.0 0.00 0.00 0.00 82 1015.8
20260508143123 50 264 0.0 1.0 0.00 0.00 0.00 82 1015.6
20260508142125 51 259 0.0 1.0 0.00 0.00 0.00 81 1015.5
20260508141124 51 235 0.0 3.0 0.00 0.00 0.00 80 1015.5
20260508140124 51 267 1.0 2.0 0.00 0.00 0.00 81 1015.4
20260508135124 51 281 0.0 1.0 0.00 0.00 0.00 81 1015.2
20260508134124 51 259 0.0 2.0 0.00 0.00 0.00 79 1015.2
20260508133124 52 253 1.0 1.0 0.00 0.00 0.00 78 1015.2
20260508132124 52 235 0.0 1.0 0.00 0.00 0.00 77 1015.0
20260508131123 52 235 0.0 1.0 0.00 0.00 0.00 77 1015.0
20260508130124 53 226 0.0 0.0 0.00 0.00 0.00 76 1015.0
20260508125125 53 266 0.0 1.0 0.00 0.00 0.00 75 1014.8
20260508124124 54 240 0.0 0.0 0.00 0.00 0.00 75 1014.6
20260508123125 54 214 0.0 0.0 0.00 0.00 0.00 73 1014.4
20260508122125 55 214 0.0 1.0 0.00 0.00 0.00 72 1014.5
20260508121126 55 244 0.0 0.0 0.00 0.00 0.00 71 1014.4
20260508120125 56 244 0.0 0.0 0.00 0.00 0.00 70 1014.1
20260508115126 57 244 0.0 0.0 0.00 0.00 0.00 68 1014.0
20260508114125 57 244 0.0 1.0 0.00 0.00 0.00 66 1013.7
20260508113125 58 241 0.0 1.0 0.00 0.00 0.00 65 1013.6
20260508112126 59 239 1.0 1.0 0.00 0.00 0.00 63 1013.6
20260508111126 59 239 0.0 2.0 0.00 0.00 0.00 62 1013.3
20260508110125 60 265 0.0 3.0 0.00 0.00 0.00 61 1013.0
20260508105126 60 263 1.0 1.0 0.00 0.00 0.00 58 1012.9
20260508104126 62 235 0.0 0.0 0.00 0.00 0.00 56 1012.7
20260508103125 62 300 0.0 0.0 0.00 0.00 0.00 51 1012.4
20260508102125 63 301 0.0 4.0 0.00 0.00 0.00 48 1012.3
20260508101125 64 250 1.0 9.0 0.00 0.00 0.00 45 1012.1
20260508100126 64 290 3.0 7.0 0.00 0.00 0.00 46 1011.8
20260508095125 65 255 3.0 7.0 0.00 0.00 0.00 46 1011.5
20260508094125 65 290 4.0 6.0 0.00 0.00 0.00 46 1011.3
20260508093125 66 297 4.0 9.0 0.00 0.00 0.00 44 1011.2
20260508092126 66 301 4.0 12.0 0.00 0.00 0.00 44 1010.9